This is the latest recevied weather packets stored in our database for station/object OK5TVR-5. If no packets are shown the sender has not sent any weather packets the latest 10 day(s).
| Time | Temp. | Humidity | Pressure | Rain* | Wind** | Luminosity | Snow |
|---|---|---|---|---|---|---|---|
| 1777692754 | 2.22° C | 96% | 1021 hPa | 0 mm | - | - | - |
| 1777691854 | 2.78° C | 93% | 1019.8 hPa | 0 mm | - | - | - |
| 1777690954 | 2.78° C | 92% | 1019.8 hPa | 0 mm | - | - | - |
| 1777690051 | 2.78° C | 91% | 1020.8 hPa | 0 mm | - | - | - |
| 1777690050 | 2.78° C | 91% | 1020.8 hPa | 0 mm | - | - | - |
| 1777673718 | 7.22° C | 79% | 1020.2 hPa | 0 mm | - | - | - |
| 1777671226 | 8.33° C | 73% | 1020.1 hPa | 0 mm | - | - | - |
| 1777671226 | 8.33° C | 73% | 1020.1 hPa | 0 mm | - | - | - |
| 1777669424 | 8.89° C | - | - | 0 mm | - | - | - |
| 1777667622 | 10° C | 67% | 1019.9 hPa | 0 mm | - | - | - |
| 1777667622 | 10° C | 67% | 1019.9 hPa | 0 mm | - | - | - |
| 1777666721 | 11.11° C | 63% | 1019.7 hPa | 0 mm | - | - | - |
| 1777666721 | 11.11° C | 63% | 1019.7 hPa | 0 mm | - | - | - |
| 1777662220 | 13.89° C | 51% | 1019.3 hPa | 0 mm | - | - | - |
| 1777659519 | 15° C | 54% | 1019.1 hPa | 0 mm | - | - | - |
| 1777659519 | 15° C | 54% | 1019.1 hPa | 0 mm | - | - | - |
| 1777658619 | 17.22° C | 47% | 1017.8 hPa | 0 mm | - | - | - |
| 1777656815 | 20° C | 36% | 1017.4 hPa | 0 mm | - | - | - |
| 1777656815 | 20° C | 36% | 1017.4 hPa | 0 mm | - | - | - |
| 1777655913 | 21.67° C | 36% | 1017.3 hPa | 0 mm | - | - | - |
| 1777655913 | 21.67° C | 36% | 1017.3 hPa | 0 mm | - | - | - |
| 1777655011 | 23.89° C | 27% | 1017 hPa | 0 mm | - | - | - |
| 1777655011 | 23.89° C | 27% | 1017 hPa | 0 mm | - | - | - |
| 1777655011 | 23.89° C | 27% | 1017 hPa | 0 mm | - | - | - |
| 1777653213 | 23.33° C | 29% | 1017.1 hPa | 0 mm | - | - | - |
* Rain latest hour (hover to see other rain measurements)
** Current wind speed in m/s (hover to see current wind gust speed)